Hourly Data Report for October 11, 2016

All times are specified in Local Standard Time (LST). Add 1 hour to adjust for Daylight Saving Time where and when it is observed.

EUREKA CLIMATE
NUNAVUT

79°59'21.000" N
85°56'02.000" W
10.00 m
2401199
71613
NEK

Download Data

Hourly Data (October 2016)
Hourly Data Report for October 11, 2016
Temp Definition
°C
Dew Point Temp Definition
°C
Rel Hum Definition
%
Wind Dir Definition
10's deg

Wind Spd Definition
km/h
Visibility Definition
km
Stn Press Definition
kPa
Hmdx Definition


Wind Chill Definition


Weather Definition


TIME
00:00 -12.8 -13.7 93 20 1   101.03   -13 LegendNANA
01:00 -13.3 -14.3 92 11 1   101.06   -14 LegendNANA
02:00 -14.2 -15.3 92 4 3   101.10   -16 LegendNANA
03:00 -13.9 -14.9 92 3 3   101.14   -16 LegendNANA
04:00 -13.7 -14.7 92 3 2   101.16   -15 LegendNANA
05:00 -13.3 -14.3 93 2 3   101.20   -15 LegendNANA
06:00 -13.4 -14.3 93 13 2   101.25   -15 LegendNANA
07:00 -13.9 -14.9 92 11 3   101.29   -16 LegendNANA
08:00 -14.0 -15.1 92 7 2   101.34   -15 LegendNANA
09:00 -14.0 -15.0 92 10 3   101.40   -16 LegendNANA
10:00 -13.4 -14.4 92 7 3   101.43   -15 LegendNANA
11:00 -13.8 -14.8 92 3 4   101.47   -17 LegendNANA
12:00 -15.3 -16.5 91 7 3   101.52   -17 LegendNANA
13:00 -17.2 -18.5 90 6 3   101.60   -20 LegendNANA
14:00 -18.0 -19.4 89 2 5   101.62   -22 LegendNANA
15:00 -18.7 -20.2 88 10 2   101.67   -20 LegendNANA
16:00 -17.2 -18.5 89 7 2   101.71   -19 LegendNANA
17:00 -18.0 -19.4 89 2 5   101.73   -22 LegendNANA
18:00 -16.8 -18.1 90 3 3   101.75   -19 LegendNANA
19:00 -15.9 -17.1 91 2 4   101.77   -19 LegendNANA
20:00 -15.2 -16.4 91 7 1   101.77   -16 LegendNANA
21:00 -14.6 -15.6 92 10 1   101.76   -15 LegendNANA
22:00 -14.1 -15.1 92 10 1   101.73   -15 LegendNANA
23:00 -14.1 -15.1 92 34 2   101.76   -15 LegendNANA

Notes on Data Quality.

Legend

  • E = Estimated
  • M = Missing
  • NA = Not Available
  • ‡ = Partner data that is not subject to review by the National Climate Archives
Date modified: